Simultaneous Nadir Overpasses (SNOs) Predictions

Prediction of SNOs between AQUA and METOP-C Satellite Orbit:

Table of predicted SNOs for the next 14.0 days since TLE Epoch: 9/24/2022
Index Date (AQUA) Time (AQUA) Lat,Lon (AQUA) SZA (AQUA ) Date (METOP-C) Time (METOP-C) Lat,Lon (METOP-C) SZA (METOP-C ) Distance(km) Time Diff (sec)
1 09/24/2022 16:09:28 -74.03, 112.52 105.40 09/24/2022 16:08:27 -74.03, 112.44 105.40 2.64 61
2 09/24/2022 16:58:56 74.10, -79.98 74.68 09/24/2022 16:59:05 74.13, -79.99 74.72 3.27 9
3 09/24/2022 17:48:29 -74.50, 86.71 104.89 09/24/2022 17:49:38 -74.54, 88.41 104.87 50.67 69
4 09/27/2022 10:53:22 73.60, 12.50 75.23 09/27/2022 10:52:14 73.58, 10.45 75.25 64.52 68
5 09/27/2022 11:42:57 -74.11, 179.01 104.23 09/27/2022 11:42:45 -74.11, 179.05 104.22 1.44 12
6 09/27/2022 12:32:25 74.17, -13.50 75.86 09/27/2022 12:33:24 74.15, -13.52 75.83 2.65 59
7 09/30/2022 06:26:58 74.07, 78.11 76.81 09/30/2022 06:26:23 74.09, 78.09 76.84 3.05 35
8 09/30/2022 07:16:25 -74.16,-114.45 103.09 09/30/2022 07:17:04 -74.14,-114.47 103.11 2.01 39
9 10/03/2022 01:10:57 -74.08, -22.89 102.11 10/03/2022 01:10:02 -74.09, -22.85 102.10 1.83 55
10 10/03/2022 02:00:25 74.15, 144.58 77.98 10/03/2022 02:00:40 74.15, 144.65 77.99 2.24 15
11 10/03/2022 02:50:03 -74.80, -49.36 101.34 10/03/2022 02:51:09 -74.79, -46.35 101.38 87.71 66
12 10/05/2022 19:54:55 73.94,-123.57 78.82 10/05/2022 19:53:43 73.89,-124.25 78.78 21.61 72
13 10/05/2022 20:44:24 -74.13, 43.63 100.97 10/05/2022 20:44:20 -74.15, 43.73 100.95 3.48 4



Historial Predications of SNOs between AQUA and METOP-C
